SCP
0 0 0 0 0 0 0 0 0 0 0 0 0 0 0 1 1 1 1 1 2 1 1 1 0 0 0 0 0 0 0 1 1 1 1 0 0 0 0 0 0 0 0 0 0 0 0 0 0
0 0 0 0 0 0 0 0 0 0 0 0 0 0 0 0 0 0 1 1 1 1 1 0 0 0 0 0 0 0 0 1 1 1 1 0 0 0 0 0 0 0 0 1 1 1 0 0 0
0 0 0 0 0 0 0 0 0 0 0 0 0 0 0 0 0 0 1 1 1 1 1 0 0 0 0 0 0 0 0 1 1 1 1 1 0 0 0 0 0 1 1 1 1 1 1 0 0
0 0 0 0 0 0 0 0 0 0 0 0 0 0 0 0 0 0 1 1 1 1 0 0 0 0 0 0 0 0 0 0 1 1 1 1 1 0 0 0 1 1 1 1 1 1 0 0 0
0 0 0 0 0 0 0 0 0 0 0 0 0 0 0 0 0 0 0 0 1 0 0 0 0 0 0 0 0 0 0 1 1 1 1 1 1 1 1 1 1 1 1 1 1 0 0 0 0
0 0 0 0 0 0 0 0 0 0 0 0 0 0 0 0 0 0 0 0 1 1 0 0 0 0 0 0 0 1 1 1 1 1 1 1 1 1 1 1 1 1 1 1 0 0 0 0 0
0 0 0 0 0 0 0 0 0 0 0 0 0 0 0 0 0 0 0 1 1 1 1 0 0 0 0 1 1 1 1 1 1 1 1 1 1 1 1 1 1 1 1 0 0 0 0 0 0
0 0 0 0 0 0 0 0 0 0 0 0 0 0 0 0 0 0 0 0 1 1 1 0 0 0 1 1 1 1 1 1 1 1 1 1 1 1 1 1 1 1 0 0 0 0 0 0 0
0 0 0 0 0 0 0 0 0 0 0 0 0 0 0 0 0 0 0 0 1 1 1 0 0 1 1 1 0 0 0 1 1 1 1 1 1 1 1 1 1 0 0 0 0 0 0 0 0
0 0 0 0 0 0 0 0 0 0 0 0 0 1 0 0 0 0 0 1 1 1 1 1 1 1 1 0 0 0 0 0 0 1 1 1 1 1 1 0 0 0 0 0 0 0 0 0 0
0 0 0 0 0 0 0 0 0 0 0 0 0 1 1 0 0 0 1 1 1 1 1 1 1 1 1 0 0 0 0 0 1 1 1 0 0 0 0 0 0 0 0 0 0 0 0 0 0
0 0 0 0 0 0 0 0 0 0 0 0 0 0 0 0 0 0 1 1 1 1 1 1 1 1 1 1 0 0 1 1 1 1 0 0 0 0 0 0 0 0 0 0 0 0 0 0 0
0 0 0 0 0 -0 0 0 0 0 0 0 0 0 0 0 0 0 0 0 0 1 1 1 2 2 1 1 1 1 1 1 1 0 0 -0 -0 0 0 0 0 0 0 0 0 0 0 0 0
0 0 0 0 0 0 0 0 0 0 0 0 0 0 0 0 0 0 0 0 1 1 2 2 2 2 2 1 1 1 0 0 0 0 0 0 0 0 0 0 0 0 0 1 1 0 0 0 0
0 0 0 0 0 0 0 0 0 0 0 0 0 0 0 0 0 0 0 1 1 2 3 3 2 2 2 1 1 1 0 0 0 0 0 0 0 0 0 0 0 0 1 1 1 1 1 1 1
0 0 0 0 0 0 0 0 0 0 0 0 0 0 0 0 0 0 1 1 2 3 4 3 2 1 2 2 2 1 1 1 0 0 0 0 0 0 0 1 1 1 1 1 1 1 1 1 2
0 0 0 0 0 0 0 0 0 0 0 0 0 0 0 0 1 1 1 2 3 4 3 2 1 2 2 2 2 2 1 1 1 1 1 0 0 0 1 1 1 1 2 2 2 2 2 2 2
0 0 0 0 0 0 0 0 0 0 0 0 0 0 0 1 1 1 2 3 4 4 3 2 2 2 3 3 3 3 2 2 2 1 1 1 1 1 1 1 2 2 2 2 2 2 2 2 2
0 0 0 0 0 0 0 0 0 0 0 0 0 0 0 1 1 2 3 4 4 4 3 2 3 4 4 4 4 4 3 2 2 2 2 2 2 2 2 2 2 2 3 3 3 2 2 2 2
0 0 0 0 0 0 0 0 0 0 0 0 0 0 1 1 2 2 3 4 4 4 3 3 3 4 5 5 5 4 3 3 2 2 2 2 1 1 2 2 2 2 2 2 2 2 2 1 1
0 0 0 0 0 0 0 0 0 0 0 0 0 1 1 1 2 2 2 3 3 3 3 3 3 3 4 4 4 3 3 2 2 2 1 1 1 1 1 1 1 1 1 2 2 1 1 1 1
0 0 0 0 0 0 0 0 0 0 0 0 0 1 1 2 2 2 1 1 1 2 2 2 2 2 2 2 2 2 2 1 1 1 1 0 0 1 1 1 1 1 1 1 1 1 1 0 0
0 0 0 0 0 0 0 0 0 0 0 1 1 1 1 1 1 1 1 1 1 1 1 1 1 1 1 1 1 1 1 1 0 0 0 0 0 0 0 1 1 1 1 1 1 0 0 0 0
0 0 0 0 0 0 0 0 0 1 1 1 1 1 1 1 1 0 0 0 0 0 0 0 0 0 0 0 0 0 0 0 0 0 0 0 0 0 0 0 1 1 1 1 0 0 0 0 0
0 0 0 0 0 0 0 0 0 1 1 1 1 1 1 1 0 0 0 0 0 0 0 0 0 0 0 0 0 0 0 0 0 0 0 0 0 0 0 0 0 0 0 0 0 0 0 0 0
0 0 0 0 0 0 0 0 1 1 1 1 1 1 0 0 0 0 0 0 0 0 0 0 0 0 0 0 0 0 0 0 0 0 0 0 0 0 0 0 0 0 0 0 0 0 0 0 0
0 0 0 0 0 0 0 0 1 1 1 1 1 1 0 0 0 0 0 0 0 0 0 0 0 0 0 0 0 0 0 0 0 0 0 0 0 0 0 0 0 0 0 0 0 0 0 0 0
0 0 0 0 0 0 0 0 1 1 1 1 1 0 0 0 0 0 0 0 0 0 0 0 0 0 0 0 0 0 0 0 0 0 0 0 0 0 0 0 0 0 0 0 0 0 0 0 0
0 0 0 0 0 0 0 0 1 1 1 1 1 0 0 0 0 0 0 0 0 0 0 0 0 0 0 0 0 0 0 0 0 0 0 0 0 0 0 0 0 0 0 0 0 0 0 0 0
0 0 0 0 0 0 0 0 1 1 1 1 1 0 0 0 0 0 0 0 0 0 0 0 0 0 0 0 0 0 0 0 0 0 0 0 0 0 0 0 0 0 0 0 0 0 0 0 0
Wind_Speed
8 11 10 8 8 10 15 17 1 16 12 11 10 9 15 16 11 9 5 8 17 16 14 13 12 13 13 12 12 12 12 12 11 10 9 9 8 7 7 7 8 8 9 9 10 10 10 9 8
11 14 10 7 10 12 12 3 19 16 12 2 4 9 15 14 12 10 8 11 15 15 13 13 13 12 12 11 11 11 12 13 13 12 11 9 8 7 6 6 6 7 8 8 8 9 9 7 6
12 16 8 9 13 13 5 14 17 13 11 7 6 12 12 8 9 9 11 12 13 14 13 13 14 13 12 10 10 11 11 12 13 13 12 11 9 7 6 6 6 7 9 10 10 10 9 8 7
9 9 9 11 16 4 10 13 15 10 7 4 7 13 11 7 7 12 14 14 15 15 13 13 13 13 12 11 10 10 10 10 11 12 11 10 8 7 6 6 7 10 13 14 13 12 11 10 9
10 9 12 15 9 6 7 8 10 9 7 6 12 17 11 12 16 17 15 15 15 14 13 12 11 12 12 11 10 9 9 9 10 11 11 8 6 6 6 7 9 11 14 15 13 11 10 9 7
9 10 12 12 6 6 7 6 8 11 9 7 16 16 12 14 16 16 15 15 17 15 14 13 12 13 12 11 9 8 7 8 9 9 9 8 7 7 7 9 11 13 14 13 12 10 10 9 7
11 12 18 8 9 6 7 6 5 7 7 5 10 17 14 15 15 15 15 17 17 17 17 15 14 13 12 11 10 9 8 8 8 9 9 9 8 9 9 11 12 13 13 12 10 10 9 8 6
12 13 19 3 5 7 8 5 3 6 7 4 5 12 13 16 14 15 14 14 16 15 14 14 15 14 12 11 11 10 9 9 9 9 10 10 10 9 10 10 11 12 12 11 11 10 9 7 7
15 12 15 5 4 7 7 6 5 5 6 3 12 17 18 19 16 14 14 11 10 14 13 13 15 13 12 11 11 10 10 9 9 8 8 7 6 7 7 10 10 10 11 11 11 10 10 9 9
11 11 9 7 6 3 5 4 5 4 4 4 13 20 17 14 14 13 13 11 8 11 11 10 12 14 13 10 9 8 8 8 6 6 6 4 2 3 7 9 9 9 10 10 11 11 10 9 6
13 13 7 3 5 8 2 3 4 3 2 1 12 20 16 10 10 12 12 11 9 12 13 13 10 8 11 8 7 5 5 5 4 5 5 4 4 5 7 6 6 6 8 7 8 8 6 4 1
14 10 5 7 4 8 8 3 3 3 4 5 11 22 19 17 14 10 15 14 14 13 13 12 10 7 5 4 4 3 4 4 4 3 3 4 2 3 4 4 6 6 5 4 3 4 4 2 4
11 12 6 7 5 10 11 8 3 5 3 8 7 13 20 16 10 7 11 12 14 13 12 12 12 8 5 4 2 3 3 4 5 3 1 0 2 0 2 2 2 2 2 4 2 3 0 2 5
10 14 9 6 10 10 8 12 10 8 5 4 5 6 11 11 6 7 7 10 14 14 14 13 12 8 6 4 3 3 3 1 3 3 3 3 2 3 2 1 1 3 2 4 3 5 3 3 4
12 13 10 11 13 12 11 12 13 8 6 8 3 5 11 13 11 11 11 10 13 14 14 13 11 8 6 6 5 4 3 2 4 4 2 2 2 3 2 2 1 2 2 1 2 6 4 5 6
11 12 15 17 17 14 10 11 11 9 9 8 6 6 11 11 10 9 6 5 9 14 13 10 9 7 5 4 3 3 3 4 3 3 3 0 3 1 3 4 2 2 1 2 4 4 4 5 4
13 15 18 19 18 16 13 11 9 4 5 4 5 5 9 9 6 10 12 8 8 15 16 11 5 3 4 4 3 4 3 3 2 2 2 2 2 3 2 4 4 3 2 3 5 3 3 4 5
16 19 20 20 17 14 10 8 5 3 3 7 6 0 10 14 13 13 15 12 11 18 16 8 5 3 4 3 2 2 2 2 1 2 3 4 2 3 3 4 5 5 4 3 4 5 4 4 5
20 21 18 13 8 8 8 9 2 5 2 3 3 9 13 16 16 16 15 14 14 16 14 9 4 3 2 2 1 1 0 1 2 2 5 5 5 6 5 5 6 5 4 5 6 5 6 5 5
21 20 16 13 8 5 6 7 6 5 3 5 6 9 10 14 16 17 18 17 16 14 10 8 7 6 6 5 3 3 3 4 5 6 8 8 7 6 5 5 5 5 5 6 5 6 5 7 7
14 14 16 16 14 10 10 11 9 9 7 5 6 9 11 14 16 17 17 16 16 14 12 10 9 8 8 7 5 4 4 4 5 6 5 6 6 4 4 4 4 4 5 5 7 7 7 7 7
13 16 18 17 16 12 14 13 14 15 12 9 10 12 15 17 17 15 15 15 15 15 14 14 12 11 10 10 9 9 7 5 4 3 1 4 5 6 6 6 5 4 4 6 8 8 8 9 10
16 16 18 18 15 16 15 16 13 18 16 12 12 15 17 17 16 15 15 14 14 14 14 13 13 12 11 11 11 10 8 6 5 5 6 6 7 8 8 7 5 5 5 7 8 8 8 8 10
18 17 15 11 12 17 18 16 13 18 20 17 15 16 17 17 17 16 15 14 14 13 13 12 12 11 10 11 10 10 9 8 8 7 7 7 6 7 9 8 7 7 6 7 8 8 10 9 10
17 13 9 11 13 15 16 18 5 21 24 22 19 18 17 17 16 16 15 14 13 12 11 10 10 8 8 8 7 7 7 7 8 8 8 8 8 7 7 9 7 7 7 7 7 8 8 8 8
14 15 14 14 14 14 13 5 9 14 20 20 18 18 16 16 16 16 14 12 11 10 9 8 8 7 7 6 5 5 5 6 7 8 9 9 8 8 9 9 9 9 8 9 7 8 8 7 7
17 16 18 17 19 16 6 11 11 14 18 18 18 17 16 16 15 14 13 11 10 9 7 6 6 5 6 6 5 5 6 7 8 8 8 8 8 9 10 9 8 7 7 7 7 6 7 7 7
19 16 11 15 15 16 16 13 15 19 19 18 17 16 16 15 14 13 11 9 7 6 6 5 5 5 5 6 7 8 8 8 8 8 8 8 8 8 9 9 7 7 7 7 7 7 6 7 6
16 16 16 14 14 16 15 4 15 21 19 18 16 16 15 14 13 11 9 8 6 6 6 6 7 7 7 8 7 7 8 8 8 7 8 8 8 8 9 9 8 8 8 7 6 7 8 8 7
18 18 16 13 14 13 12 4 11 18 18 16 15 15 14 13 11 10 8 7 7 7 6 7 7 7 8 8 7 7 7 7 8 8 8 8 7 8 8 8 8 8 8 7 8 10 10 11 11
Wind_Direction
246 254 249 259 244 237 245 246 69 72 53 28 30 45 69 56 44 79 106 107 107 110 117 120 118 114 112 113 114 114 118 121 118 114 109 104 103 108 113 116 114 107 96 90 88 83 77 68 61
265 250 242 248 249 253 241 155 83 86 94 64 357 44 65 68 70 100 118 113 116 122 121 115 122 118 118 119 119 120 123 126 122 118 112 104 97 97 101 103 103 99 94 92 90 85 81 73 62
263 266 258 242 246 265 312 94 91 102 129 161 104 72 53 55 74 98 121 130 120 109 109 120 126 125 128 128 126 127 130 132 129 124 118 110 103 99 100 98 99 91 79 74 80 80 77 71 60
257 233 236 246 257 263 29 79 99 106 123 98 83 83 76 54 85 115 138 137 119 116 120 121 128 132 137 138 134 134 135 133 129 124 120 120 120 113 97 91 95 95 92 90 88 87 86 82 74
239 254 243 255 261 64 69 71 105 119 115 95 83 88 89 89 105 127 144 135 123 118 117 124 138 143 143 144 143 140 137 135 134 132 132 133 121 111 105 102 106 108 105 101 100 101 99 93 85
239 251 262 264 107 91 115 134 137 125 126 131 113 106 104 119 129 143 144 140 130 129 125 131 144 148 145 143 138 131 130 134 139 140 140 139 130 119 117 119 121 120 115 111 110 108 106 104 98
253 276 279 279 110 133 127 134 131 135 125 92 110 110 121 136 146 145 144 141 144 141 139 141 142 141 136 136 137 135 136 134 137 147 151 152 145 136 130 126 128 131 128 124 120 123 125 125 124
252 279 291 297 133 134 129 139 106 73 77 71 46 102 128 140 161 145 147 149 151 143 141 146 141 140 140 135 135 135 135 135 136 142 152 156 153 146 136 130 134 140 142 141 143 150 151 157 170
258 267 283 310 104 123 143 155 134 127 154 141 86 108 131 149 166 158 152 153 144 135 153 146 136 139 135 134 139 142 141 143 145 152 163 168 173 152 143 126 134 142 148 153 163 177 181 188 201
243 262 290 12 37 114 155 161 147 177 175 154 105 105 122 155 169 172 151 145 151 142 128 126 136 145 138 139 153 159 158 160 183 157 167 179 153 131 130 138 153 159 163 171 188 198 204 208 213
253 266 347 353 355 332 218 178 175 209 163 41 118 124 134 172 205 171 143 142 165 151 148 146 138 130 134 148 165 158 142 156 155 130 138 157 158 158 151 163 170 180 182 197 195 205 220 216 184
257 283 320 315 25 294 292 236 217 243 124 104 118 140 155 179 204 171 147 154 161 152 134 123 118 92 80 108 124 162 142 150 125 132 197 163 185 215 168 178 178 180 190 201 202 214 182 246 254
238 274 248 270 268 267 298 301 240 254 192 154 145 150 160 177 191 153 135 146 149 133 126 116 101 93 76 50 49 70 76 102 122 141 94 225 175 177 66 27 7 305 138 168 235 287 337 290 283
257 256 253 247 260 256 265 284 275 245 288 262 168 179 162 152 146 131 148 162 149 137 129 120 118 120 115 104 75 62 80 39 105 88 76 348 42 59 54 332 315 321 3 37 359 317 302 269 268
267 276 276 257 254 257 260 259 273 256 245 269 263 218 156 148 153 168 184 172 147 137 126 125 126 130 136 137 141 129 137 133 84 83 72 345 11 55 347 279 212 274 345 23 273 275 279 270 265
256 261 260 254 244 234 241 263 269 286 228 233 240 225 154 148 172 175 153 113 131 129 112 110 119 121 119 104 100 90 72 82 89 123 129 66 5 7 324 307 281 270 312 298 269 255 263 271 290
252 246 248 251 242 225 210 238 266 347 342 314 278 228 147 128 74 67 65 61 75 88 80 59 57 138 136 120 106 99 92 76 74 84 105 103 341 305 299 303 309 313 281 272 286 324 339 325 325
242 239 237 240 250 216 221 243 254 59 350 303 284 298 98 83 67 66 70 73 86 97 103 125 195 168 132 117 94 103 107 122 116 87 75 67 345 325 335 313 338 332 320 328 343 334 320 304 292
256 270 284 278 233 197 209 244 194 74 9 324 37 68 80 79 67 67 78 90 97 111 131 156 141 84 72 62 52 95 64 36 39 49 58 44 26 19 6 344 342 339 344 343 326 322 315 302 289
247 260 272 280 272 209 229 217 136 106 78 43 67 76 71 75 70 66 68 72 80 92 107 107 86 46 32 33 27 20 18 14 27 33 31 17 7 355 349 5 331 346 338 318 327 336 315 304 304
251 261 266 267 263 202 215 219 171 141 130 123 106 91 79 74 76 70 64 65 72 78 82 87 83 59 38 26 27 29 25 20 23 22 24 350 313 321 339 322 324 339 327 324 339 313 313 315 308
242 248 256 262 267 244 209 228 180 151 144 137 122 107 94 84 80 77 74 71 72 75 77 77 73 61 48 44 40 40 34 25 24 6 11 319 328 349 338 326 328 337 333 323 318 337 333 315 306
251 250 260 252 249 264 248 235 173 154 149 132 117 106 102 99 96 93 90 87 84 81 77 71 66 58 50 47 44 40 34 20 10 356 353 350 346 339 326 322 345 0 337 327 332 326 324 315 305
249 249 257 263 251 245 247 252 185 168 150 139 130 120 115 113 110 105 100 94 87 83 79 72 64 57 50 43 38 32 21 2 348 343 341 345 334 319 319 338 360 345 334 333 330 325 316 313 313
235 243 235 234 239 248 242 248 198 155 149 149 141 134 128 125 119 111 102 93 86 80 77 74 66 58 51 45 34 21 8 337 332 349 345 334 318 315 333 346 339 335 335 330 328 323 315 311 311
216 236 243 244 241 239 245 268 77 130 140 137 138 136 133 126 114 108 103 99 93 83 74 68 61 50 36 30 22 358 358 346 342 347 331 317 319 330 339 342 341 337 332 323 318 306 297 297 298
230 219 238 256 266 274 234 124 153 140 135 141 145 143 134 119 115 112 107 100 95 90 74 57 48 35 26 6 4 353 4 351 339 333 328 334 337 326 337 332 324 322 318 312 307 296 295 294 291
235 247 243 238 252 262 264 193 163 160 157 156 155 145 129 124 120 113 109 101 94 96 96 63 45 22 13 360 1 355 355 350 345 340 344 337 331 327 318 314 314 314 310 303 302 300 294 295 291
218 235 255 263 252 253 260 258 142 167 163 161 156 143 136 136 130 126 119 112 101 68 49 35 23 11 5 359 3 5 360 354 346 341 339 333 326 322 319 317 311 308 303 303 305 304 305 309 304
234 232 231 244 256 260 268 121 160 159 153 154 153 144 139 134 128 118 103 87 67 46 27 21 6 1 360 357 6 12 356 349 339 335 329 325 325 323 320 314 314 320 330 341 354 352 346 332 320